User: anonymous   Login
Location: Unspecified
(0.0000°N, 0.0000°E)
Time: 03:52:26
(UTC+00:00)
Language:

XW-2F - Orbit

View from above orbital plane
View from above orbital plane
View from above satellite
View from above satellite

Ground track
Ground track

The orbit data is extracted from the following two-line orbital elements,

1 40910U 15049M   18017.83058118  .00000924  00000-0  51164-4 0  9990
2 40910  97.4559  24.8842 0015156 179.5583 180.5666 15.16200499128661
Epoch (UTC): 17 January 2018 19:56:02
Eccentricity: 0.0015156
inclination: 97.4559°
perigee height: 507 km
apogee height: 528 km
right ascension of ascending node: 24.8842°
argument of perigee: 179.5583°
revolutions per day: 15.16200499
mean anomaly at epoch: 180.5666°
orbit number at epoch: 12866

The dashed part of the orbit path shows where the satellite is in the earth's shadow,  

DLR